| time (UTC) | temp F | wind direction | speed knots | gust knots | rain 1hr in | rain 24hr in | rain mn in | humidity % | barometer mb |
| 20260905173436 | 63 | 292 | 6.1 | 13.0 | 0.00 | 0.08 | 0.00 | 64 | 1062.3 |
| 20260905173335 | 63 | 270 | 7.8 | 13.0 | 0.00 | 0.08 | 0.00 | 64 | 1059.5 |
| 20260905172936 | 63 | 225 | 3.5 | 9.6 | 0.00 | 0.08 | 0.00 | 64 | 982.3 |
| 20260905172436 | 63 | 270 | 5.2 | 10.4 | 0.00 | 0.08 | 0.00 | 64 | 1024.0 |
| 20260905171936 | 63 | 247 | 6.1 | 16.5 | 0.00 | 0.08 | 0.00 | 63 | 1030.3 |
| 20260905171436 | 64 | 270 | 6.1 | 11.3 | 0.00 | 0.08 | 0.00 | 63 | 1064.2 |
| 20260905170936 | 64 | 270 | 7.0 | 10.4 | 0.00 | 0.08 | 0.00 | 63 | 1070.8 |
| 20260905170436 | 64 | 270 | 3.5 | 14.8 | 0.00 | 0.08 | 0.00 | 62 | 1051.6 |
| 20260905170035 | 64 | 270 | 2.6 | 14.8 | 0.00 | 0.08 | 0.00 | 62 | 1037.7 |
| 20260905165936 | 64 | 202 | 6.1 | 12.2 | 0.00 | 0.08 | 0.00 | 62 | 1078.4 |
| 20260905165436 | 64 | 270 | 11.3 | 18.2 | 0.00 | 0.08 | 0.00 | 61 | 1046.9 |
| 20260905164936 | 65 | 247 | 11.3 | 13.9 | 0.00 | 0.08 | 0.00 | 60 | 1062.0 |
| 20260905164436 | 65 | 247 | 8.7 | 17.4 | 0.00 | 0.08 | 0.00 | 60 | 1053.2 |
| 20260905163936 | 65 | 247 | 9.6 | 16.5 | 0.00 | 0.08 | 0.00 | 60 | 1047.6 |
| 20260905163436 | 65 | 247 | 5.2 | 16.5 | 0.00 | 0.08 | 0.00 | 60 | 1075.2 |
| 20260905162936 | 64 | 247 | 12.2 | 15.6 | 0.00 | 0.08 | 0.00 | 61 | 1062.7 |
| 20260905162735 | 64 | 270 | 12.2 | 15.6 | 0.00 | 0.08 | 0.00 | 61 | 1070.6 |
| 20260905162436 | 64 | 270 | 7.8 | 10.4 | 0.00 | 0.08 | 0.00 | 60 | 1061.1 |
| 20260905161937 | 64 | 247 | 5.2 | 16.5 | 0.00 | 0.08 | 0.00 | 60 | 1015.2 |
| 20260905161436 | 64 | 270 | 10.4 | 17.4 | 0.00 | 0.08 | 0.00 | 59 | 1038.2 |
| 20260905160936 | 64 | 247 | 6.1 | 12.2 | 0.00 | 0.08 | 0.00 | 59 | 1075.2 |
| 20260905160436 | 65 | 247 | 6.1 | 15.6 | 0.00 | 0.08 | 0.00 | 58 | 1064.2 |
| 20260905155936 | 65 | 225 | 7.0 | 17.4 | 0.00 | 0.08 | 0.00 | 57 | 1035.0 |
| 20260905155435 | 66 | 247 | 10.4 | 15.6 | 0.00 | 0.08 | 0.00 | 57 | 1048.5 |
| 20260905154936 | 66 | 180 | 13.0 | 15.6 | 0.00 | 0.08 | 0.00 | 56 | 1054.8 |
| 20260905154436 | 66 | 225 | 14.8 | 20.9 | 0.00 | 0.08 | 0.00 | 55 | 1067.4 |
| 20260905153937 | 67 | 247 | 11.3 | 18.2 | 0.00 | 0.08 | 0.00 | 54 | 1069.0 |
| 20260905153436 | 67 | 292 | 5.2 | 18.2 | 0.00 | 0.08 | 0.00 | 55 | 1074.9 |
| 20260905152936 | 67 | 270 | 8.7 | 21.7 | 0.00 | 0.08 | 0.00 | 55 | 1078.4 |
| 20260905152436 | 67 | 270 | 13.9 | 17.4 | 0.00 | 0.08 | 0.00 | 56 | 1054.8 |
| 20260905152135 | 67 | 202 | 15.6 | 16.5 | 0.00 | 0.08 | 0.00 | 57 | 1076.8 |
| 20260905151936 | 67 | 202 | 10.4 | 16.5 | 0.00 | 0.08 | 0.00 | 57 | 1043.4 |
| 20260905151436 | 66 | 337 | 6.1 | 13.0 | 0.00 | 0.08 | 0.00 | 59 | 1086.3 |
| 20260905150937 | 66 | 225 | 7.0 | 20.9 | 0.00 | 0.08 | 0.00 | 59 | 1070.6 |
| 20260905150436 | 66 | 270 | 5.2 | 18.2 | 0.00 | 0.08 | 0.00 | 60 | 996.4 |
| 20260905145436 | 67 | 270 | 10.4 | 24.3 | 0.00 | 0.08 | 0.00 | 60 | 1075.4 |
| 20260905144936 | 68 | 270 | 11.3 | 23.5 | 0.00 | 0.08 | 0.00 | 58 | 1046.9 |
| 20260905144835 | 68 | 292 | 6.1 | 23.5 | 0.00 | 0.08 | 0.00 | 58 | 1076.9 |
| 20260905144436 | 69 | 292 | 20.0 | 20.0 | 0.00 | 0.08 | 0.00 | 54 | 1053.2 |
| 20260905143937 | 69 | 202 | 11.3 | 18.2 | 0.00 | 0.08 | 0.00 | 50 | 1053.2 |
| 20260905143436 | 70 | 270 | 13.0 | 19.1 | 0.00 | 0.08 | 0.00 | 50 | 1033.5 |
| 20260905142936 | 70 | 270 | 16.5 | 18.2 | 0.00 | 0.08 | 0.00 | 50 | 1065.8 |
| 20260905142436 | 70 | 202 | 4.3 | 20.0 | 0.00 | 0.08 | 0.00 | 50 | 1058.0 |
| 20260905141536 | 71 | 270 | 18.2 | 20.0 | 0.00 | 0.08 | 0.00 | 48 | 1079.9 |
| 20260905140936 | 71 | 315 | 7.0 | 16.5 | 0.00 | 0.08 | 0.00 | 47 | 1062.6 |
| 20260905140436 | 71 | 247 | 8.7 | 16.5 | 0.00 | 0.08 | 0.00 | 48 | 1062.6 |
| 20260905135936 | 72 | 292 | 6.1 | 16.5 | 0.00 | 0.08 | 0.00 | 47 | 1064.2 |
| 20260905135436 | 72 | 225 | 7.8 | 20.9 | 0.00 | 0.08 | 0.00 | 46 | 1080.0 |
| 20260905134937 | 73 | 270 | 10.4 | 20.9 | 0.00 | 0.08 | 0.00 | 47 | 1056.4 |
| 20260905134437 | 73 | 247 | 19.1 | 25.2 | 0.00 | 0.08 | 0.00 | 47 | 1058.0 |
| 20260905134236 | 72 | 202 | 15.6 | 17.4 | 0.00 | 0.08 | 0.00 | 48 | 1059.5 |
| 20260905133936 | 72 | 270 | 14.8 | 22.6 | 0.00 | 0.08 | 0.00 | 48 | 1076.8 |
| 20260905133437 | 71 | 45 | 5.2 | 14.8 | 0.00 | 0.08 | 0.00 | 49 | 1018.5 |
| 20260905132937 | 71 | 225 | 3.5 | 15.6 | 0.00 | 0.08 | 0.00 | 49 | 1073.7 |
| 20260905132437 | 71 | 270 | 9.6 | 16.5 | 0.00 | 0.08 | 0.00 | 48 | 1068.9 |
| 20260905131937 | 72 | 270 | 16.5 | 20.9 | 0.00 | 0.08 | 0.00 | 47 | 1080.4 |
| 20260905131437 | 72 | 247 | 15.6 | 17.4 | 0.00 | 0.08 | 0.00 | 47 | 1011.4 |
| 20260905130936 | 72 | 315 | 11.3 | 18.2 | 0.00 | 0.08 | 0.00 | 46 | 1045.7 |
| 20260905130437 | 72 | 247 | 10.4 | 18.2 | 0.00 | 0.08 | 0.00 | 46 | 1030.3 |
| 20260905125937 | 73 | 270 | 16.5 | 18.2 | 0.00 | 0.08 | 0.00 | 46 | 1076.5 |
| 20260905125437 | 73 | 270 | 14.8 | 20.0 | 0.00 | 0.08 | 0.00 | 45 | 1046.9 |
| 20260905124937 | 73 | 270 | 10.4 | 20.0 | 0.00 | 0.08 | 0.00 | 45 | 1045.7 |
| 20260905124523 | 72 | 270 | 14.8 | 20.0 | 0.00 | 0.08 | 0.00 | 46 | 1070.5 |
| 20260905124518 | 73 | 270 | 20.0 | 26.1 | 0.00 | 0.08 | 0.00 | 45 | 1067.1 |
| 20260905124437 | 73 | 270 | 20.0 | 26.1 | 0.00 | 0.08 | 0.00 | 45 | 1067.1 |
| 20260905123937 | 73 | 270 | 16.5 | 23.5 | 0.00 | 0.08 | 0.00 | 46 | 1081.5 |
| 20260905123636 | 72 | 270 | 8.7 | 20.0 | 0.00 | 0.08 | 0.00 | 46 | 1067.4 |
| 20260905123437 | 72 | 270 | 14.8 | 20.0 | 0.00 | 0.08 | 0.00 | 46 | 1070.5 |
| 20260905122937 | 71 | 202 | 14.8 | 26.1 | 0.00 | 0.08 | 0.00 | 46 | 1059.2 |
| 20260905122437 | 71 | 202 | 14.8 | 20.0 | 0.00 | 0.08 | 0.00 | 46 | 1089.4 |
| 20260905121937 | 71 | 90 | 6.1 | 24.3 | 0.00 | 0.08 | 0.00 | 47 | 1076.5 |
| 20260905121437 | 71 | 270 | 20.0 | 20.0 | 0.00 | 0.08 | 0.00 | 47 | 1085.2 |
| 20260905120937 | 71 | 270 | 18.2 | 25.2 | 0.00 | 0.08 | 0.00 | 46 | 1061.1 |
| 20260905120437 | 71 | 225 | 18.2 | 18.2 | 0.00 | 0.08 | 0.00 | 46 | 1070.5 |
| 20260905120336 | 71 | 247 | 13.9 | 21.7 | 0.00 | 0.08 | 0.00 | 45 | 1036.7 |
| 20260905115937 | 72 | 270 | 21.7 | 23.5 | 0.00 | 0.08 | 0.00 | 45 | 985.4 |
| 20260905114937 | 73 | 247 | 11.3 | 19.1 | 0.00 | 0.08 | 0.00 | 46 | 1073.7 |
| 20260905114437 | 73 | 180 | 7.8 | 20.0 | 0.00 | 0.08 | 0.00 | 46 | 1022.5 |
| 20260905113937 | 72 | 247 | 13.9 | 31.3 | 0.00 | 0.08 | 0.00 | 46 | 1061.8 |
| 20260905113437 | 73 | 292 | 10.4 | 19.1 | 0.00 | 0.08 | 0.00 | 46 | 1067.4 |
| 20260905113036 | 72 | 180 | 5.2 | 20.9 | 0.00 | 0.08 | 0.00 | 47 | 1042.9 |
| 20260905112937 | 72 | 225 | 15.6 | 20.9 | 0.00 | 0.08 | 0.00 | 47 | 985.4 |
| 20260905111938 | 71 | 292 | 7.8 | 21.7 | 0.00 | 0.08 | 0.00 | 46 | 1035.8 |
| 20260905111437 | 72 | 247 | 15.6 | 19.1 | 0.00 | 0.08 | 0.00 | 46 | 1056.4 |
| 20260905110937 | 72 | 270 | 10.4 | 31.3 | 0.00 | 0.08 | 0.00 | 48 | 1051.6 |
| 20260905110437 | 72 | 270 | 13.9 | 21.7 | 0.00 | 0.08 | 0.00 | 48 | 1061.1 |
| 20260905105937 | 72 | 270 | 9.6 | 18.2 | 0.00 | 0.08 | 0.00 | 47 | 1030.3 |
| 20260905105736 | 72 | 247 | 7.0 | 21.7 | 0.00 | 0.08 | 0.00 | 48 | 1005.1 |
| 20260905105437 | 71 | 315 | 7.0 | 26.9 | 0.00 | 0.08 | 0.00 | 48 | 1034.7 |
| 20260905104937 | 70 | 180 | 13.0 | 26.9 | 0.00 | 0.08 | 0.00 | 51 | 1076.6 |
| 20260905104437 | 69 | 292 | 7.0 | 18.2 | 0.00 | 0.08 | 0.00 | 53 | 1054.8 |
| 20260905103937 | 68 | 90 | 9.6 | 15.6 | 0.00 | 0.08 | 0.00 | 54 | 1037.1 |
| 20260905103437 | 68 | 270 | 14.8 | 24.3 | 0.00 | 0.08 | 0.00 | 54 | 1059.5 |
| 20260905102937 | 69 | 270 | 17.4 | 23.5 | 0.00 | 0.08 | 0.00 | 52 | 1022.5 |
| 20260905102436 | 70 | 270 | 23.5 | 23.5 | 0.00 | 0.08 | 0.00 | 50 | 1061.1 |
| 20260905101437 | 73 | 270 | 22.6 | 26.9 | 0.00 | 0.08 | 0.00 | 47 | 1036.6 |
| 20260905100938 | 73 | 270 | 14.8 | 20.9 | 0.00 | 0.08 | 0.00 | 48 | 1059.5 |
| 20260905100437 | 73 | 247 | 17.4 | 20.0 | 0.00 | 0.08 | 0.00 | 50 | 1036.6 |
| 20260905095937 | 72 | 337 | 8.7 | 20.0 | 0.00 | 0.08 | 0.00 | 48 | 1051.6 |
| 20260905095437 | 73 | 270 | 16.5 | 27.8 | 0.00 | 0.08 | 0.00 | 50 | 1077.1 |
| 20260905095136 | 72 | 270 | 4.3 | 21.7 | 0.00 | 0.08 | 0.00 | 50 | 1053.2 |
| 20260905094937 | 72 | 270 | 8.7 | 25.2 | 0.00 | 0.08 | 0.00 | 50 | 1048.5 |
| 20260905094437 | 71 | 247 | 5.2 | 18.2 | 0.00 | 0.08 | 0.00 | 52 | 1068.9 |
| 20260905093937 | 71 | 270 | 7.8 | 21.7 | 0.00 | 0.08 | 0.00 | 51 | 1056.4 |
| 20260905093437 | 71 | 270 | 9.6 | 28.7 | 0.00 | 0.08 | 0.00 | 51 | 1075.2 |
| 20260905092937 | 71 | 270 | 20.9 | 38.2 | 0.00 | 0.08 | 0.00 | 51 | 1068.6 |
| 20260905092437 | 71 | 247 | 8.7 | 27.8 | 0.00 | 0.08 | 0.00 | 51 | 1080.0 |
| 20260905091937 | 72 | 270 | 7.0 | 21.7 | 0.00 | 0.08 | 0.00 | 52 | 1056.4 |
| 20260905091836 | 71 | 270 | 14.8 | 23.5 | 0.00 | 0.08 | 0.00 | 53 | 1043.8 |
| 20260905091437 | 71 | 225 | 7.8 | 23.5 | 0.00 | 0.08 | 0.00 | 54 | 1053.2 |
| 20260905090937 | 70 | 337 | 6.1 | 18.2 | 0.00 | 0.08 | 0.00 | 54 | 1056.4 |
| 20260905090437 | 69 | 292 | 5.2 | 18.2 | 0.00 | 0.08 | 0.00 | 56 | 1039.1 |
| 20260905085937 | 69 | 225 | 7.0 | 20.9 | 0.00 | 0.08 | 0.00 | 56 | 1081.5 |
| 20260905085437 | 69 | 270 | 12.2 | 25.2 | 0.00 | 0.08 | 0.00 | 55 | 1065.9 |
| 20260905084937 | 69 | 292 | 11.3 | 22.6 | 0.00 | 0.08 | 0.00 | 55 | 1073.7 |
| 20260905084536 | 70 | 225 | 10.4 | 29.5 | 0.00 | 0.08 | 0.00 | 54 | 1050.1 |
| 20260905084437 | 71 | 292 | 22.6 | 29.5 | 0.00 | 0.08 | 0.00 | 53 | 1046.9 |
| 20260905083937 | 72 | 202 | 11.3 | 18.2 | 0.00 | 0.08 | 0.00 | 55 | 1073.7 |
| 20260905083437 | 72 | 247 | 10.4 | 18.2 | 0.00 | 0.08 | 0.00 | 55 | 1086.3 |
| 20260905082937 | 71 | 247 | 14.8 | 20.9 | 0.00 | 0.08 | 0.00 | 56 | 1065.8 |
| 20260905082437 | 71 | 270 | 12.2 | 23.5 | 0.00 | 0.08 | 0.00 | 56 | 1078.4 |
| 20260905081937 | 71 | 202 | 13.9 | 23.5 | 0.00 | 0.08 | 0.00 | 55 | 1069.0 |
| 20260905081236 | 72 | 247 | 12.2 | 18.2 | 0.00 | 0.08 | 0.00 | 56 | 1046.9 |
| 20260905080937 | 72 | 157 | 14.8 | 20.0 | 0.00 | 0.08 | 0.00 | 56 | 1046.9 |
| 20260905080437 | 72 | 270 | 8.7 | 17.4 | 0.00 | 0.08 | 0.00 | 56 | 1048.0 |
| 20260905075937 | 71 | 247 | 14.8 | 19.1 | 0.00 | 0.08 | 0.00 | 59 | 1067.4 |
| 20260905075437 | 69 | 270 | 14.8 | 16.5 | 0.00 | 0.08 | 0.00 | 63 | 1070.5 |
| 20260905074937 | 68 | 270 | 14.8 | 20.0 | 0.00 | 0.08 | 0.00 | 64 | 1072.1 |
| 20260905074437 | 67 | 292 | 11.3 | 17.4 | 0.00 | 0.08 | 0.00 | 63 | 1046.6 |
| 20260905073936 | 68 | 202 | 7.8 | 20.9 | 0.00 | 0.08 | 0.00 | 63 | 1053.2 |
| 20260905073437 | 68 | 270 | 14.8 | 25.2 | 0.00 | 0.08 | 0.00 | 63 | 1044.2 |
| 20260905072937 | 67 | 247 | 5.2 | 20.0 | 0.00 | 0.08 | 0.00 | 64 | 1039.0 |
| 20260905072437 | 67 | 247 | 6.1 | 16.5 | 0.00 | 0.08 | 0.00 | 66 | 1085.0 |
| 20260905071937 | 66 | 270 | 20.9 | 20.9 | 0.00 | 0.08 | 0.00 | 66 | 1063.8 |
| 20260905071437 | 66 | 270 | 12.2 | 28.7 | 0.00 | 0.08 | 0.00 | 67 | 1040.6 |
| 20260905070937 | 66 | 270 | 28.7 | 28.7 | 0.00 | 0.08 | 0.00 | 66 | 1046.9 |
| 20260905070636 | 66 | 270 | 13.9 | 19.1 | 0.00 | 0.08 | 0.00 | 65 | 1050.1 |
| 20260905070437 | 66 | 270 | 10.4 | 16.5 | 0.00 | 0.08 | 0.00 | 65 | 1007.4 |
| 20260905065937 | 67 | 315 | 14.8 | 19.1 | 0.00 | 0.08 | 0.00 | 64 | 1029.3 |
| 20260905065438 | 67 | 247 | 8.7 | 18.2 | 0.00 | 0.08 | 0.00 | 63 | 1053.2 |
| 20260905064937 | 67 | 270 | 10.4 | 14.8 | 0.00 | 0.08 | 0.00 | 64 | 1066.1 |
| 20260905064437 | 68 | 247 | 7.0 | 13.0 | 0.00 | 0.08 | 0.00 | 64 | 1081.5 |
| 20260905063937 | 68 | 270 | 12.2 | 18.2 | 0.00 | 0.08 | 0.00 | 63 | 1044.3 |
| 20260905063437 | 68 | 270 | 18.2 | 19.1 | 0.00 | 0.08 | 0.00 | 63 | 1046.9 |
| 20260905063336 | 68 | 292 | 8.7 | 19.1 | 0.00 | 0.08 | 0.00 | 62 | 1050.1 |
| 20260905062937 | 69 | 225 | 11.3 | 20.9 | 0.00 | 0.08 | 0.00 | 62 | 1051.7 |
| 20260905062437 | 69 | 315 | 6.1 | 20.0 | 0.00 | 0.08 | 0.00 | 62 | 1078.4 |
| 20260905061937 | 69 | 225 | 8.7 | 17.4 | 0.00 | 0.08 | 0.00 | 62 | 1080.1 |
| 20260905061437 | 69 | 270 | 9.6 | 20.0 | 0.00 | 0.08 | 0.00 | 63 | 1070.5 |
| 20260905060937 | 69 | 270 | 7.0 | 20.0 | 0.00 | 0.08 | 0.00 | 64 | 1053.9 |
| 20260905060437 | 69 | 247 | 2.6 | 18.2 | 0.00 | 0.08 | 0.00 | 65 | 1060.3 |
| 20260905060036 | 68 | 270 | 15.6 | 15.6 | 0.00 | 0.08 | 0.00 | 69 | 1072.9 |
| 20260905055937 | 67 | 270 | 6.1 | 14.8 | 0.00 | 0.08 | 0.00 | 69 | 1013.0 |
| 20260905055437 | 66 | 247 | 16.5 | 18.2 | 0.00 | 0.08 | 0.00 | 69 | 1063.3 |
| 20260905054937 | 65 | 292 | 7.0 | 16.5 | 0.00 | 0.08 | 0.00 | 71 | 1075.1 |
| 20260905054437 | 64 | 292 | 6.1 | 16.5 | 0.00 | 0.08 | 0.00 | 73 | 1040.6 |
| 20260905053937 | 64 | 270 | 7.8 | 19.1 | 0.00 | 0.08 | 0.00 | 74 | 1070.6 |
| 20260905053438 | 63 | 202 | 7.0 | 14.8 | 0.00 | 0.08 | 0.00 | 73 | 1061.6 |
| 20260905052937 | 63 | 270 | 4.3 | 16.5 | 0.00 | 0.08 | 0.00 | 74 | 1059.5 |
| 20260905052736 | 63 | 292 | 7.0 | 14.8 | 0.00 | 0.08 | 0.00 | 74 | 1040.6 |
| 20260905052437 | 63 | 270 | 7.0 | 18.2 | 0.00 | 0.08 | 0.00 | 74 | 1070.6 |
| 20260905051937 | 63 | 270 | 16.5 | 16.5 | 0.00 | 0.08 | 0.00 | 74 | 1069.2 |
| 20260905051437 | 64 | 270 | 13.9 | 15.6 | 0.00 | 0.08 | 0.00 | 76 | 1067.4 |
| 20260905050937 | 63 | 247 | 12.2 | 12.2 | 0.00 | 0.08 | 0.00 | 78 | 1080.8 |
| 20260905050437 | 62 | 247 | 4.3 | 12.2 | 0.00 | 0.08 | 0.00 | 80 | 1057.4 |
| 20260905045937 | 61 | 292 | 7.0 | 12.2 | 0.00 | 0.08 | 0.00 | 79 | 1038.7 |
| 20260905045437 | 61 | 292 | 8.7 | 16.5 | 0.00 | 0.08 | 0.00 | 79 | 1056.4 |
| 20260905044938 | 60 | 270 | 12.2 | 20.0 | 0.00 | 0.08 | 0.00 | 81 | 1094.1 |
| 20260905044438 | 60 | 247 | 6.1 | 20.9 | 0.00 | 0.08 | 0.00 | 82 | 1059.5 |
| 20260905043937 | 59 | 247 | 17.4 | 17.4 | 0.00 | 0.08 | 0.00 | 84 | 1054.8 |
| 20260905043437 | 59 | 270 | 14.8 | 17.4 | 0.00 | 0.08 | 0.00 | 84 | 1046.9 |
| 20260905042937 | 59 | 292 | 6.1 | 18.2 | 0.00 | 0.08 | 0.00 | 85 | 1027.2 |
| 20260905042437 | 59 | 225 | 13.9 | 21.7 | 0.00 | 0.08 | 0.00 | 85 | 1050.1 |
| 20260905042136 | 59 | 270 | 7.0 | 28.7 | 0.00 | 0.08 | 0.00 | 86 | 1070.0 |
| 20260905041937 | 59 | 247 | 9.6 | 28.7 | 0.00 | 0.08 | 0.00 | 86 | 1065.4 |
| 20260905041437 | 59 | 270 | 17.4 | 19.1 | 0.00 | 0.08 | 0.00 | 87 | 1044.1 |
| 20260905040937 | 59 | 270 | 19.1 | 25.2 | 0.00 | 0.08 | 0.00 | 87 | 998.8 |
| 20260905040438 | 59 | 225 | 8.7 | 23.5 | 0.00 | 0.08 | 0.00 | 88 | 1028.0 |
| 20260905035938 | 58 | 270 | 13.0 | 19.1 | 0.02 | 0.08 | 0.00 | 88 | 1021.6 |
| 20260905035438 | 58 | 270 | 10.4 | 18.2 | 0.02 | 0.08 | 0.00 | 88 | 1047.3 |
| 20260905034938 | 58 | 292 | 13.9 | 17.4 | 0.02 | 0.08 | 0.00 | 88 | 1034.3 |
| 20260905034837 | 58 | 292 | 12.2 | 17.4 | 0.02 | 0.08 | 0.00 | 89 | 1043.8 |
| 20260905034438 | 58 | 180 | 3.5 | 20.0 | 0.02 | 0.08 | 0.00 | 88 | 1051.2 |
| 20260905033938 | 58 | 270 | 17.4 | 17.4 | 0.02 | 0.08 | 0.00 | 88 | 1031.2 |
| 20260905033438 | 58 | 292 | 7.0 | 16.5 | 0.02 | 0.08 | 0.00 | 87 | 1062.7 |
| 20260905032938 | 58 | 292 | 4.3 | 14.8 | 0.02 | 0.08 | 0.00 | 87 | 1018.5 |
| 20260905032549 | 59 | 270 | 10.4 | 13.0 | 0.02 | 0.08 | 0.00 | 85 | 1021.7 |
| 20260905032438 | 59 | 270 | 10.4 | 13.0 | 0.02 | 0.08 | 0.00 | 85 | 1021.7 |
| 20260905031938 | 60 | 270 | 11.3 | 25.2 | 0.02 | 0.08 | 0.00 | 84 | 1034.3 |
| 20260905031537 | 60 | 292 | 8.7 | 26.1 | 0.02 | 0.08 | 0.00 | 83 | 1009.0 |
| 20260905031438 | 61 | 270 | 16.5 | 26.1 | 0.02 | 0.08 | 0.00 | 82 | 999.5 |
| 20260905031132 | 63 | 270 | 25.2 | 25.2 | 0.02 | 0.08 | 0.00 | 82 | 1031.2 |
| 20260905030938 | 63 | 270 | 25.2 | 25.2 | 0.02 | 0.08 | 0.00 | 82 | 1031.2 |
| 20260905030438 | 63 | 247 | 16.5 | 16.5 | 0.00 | 0.06 | 0.00 | 82 | 1040.6 |
| 20260905025938 | 63 | 270 | 8.7 | 16.5 | 0.00 | 0.06 | 0.00 | 81 | 1031.2 |
| 20260905025438 | 63 | 270 | 16.5 | 16.5 | 0.00 | 0.06 | 0.00 | 81 | 1024.8 |
| 20260905024938 | 63 | 202 | 7.0 | 18.2 | 0.00 | 0.06 | 0.00 | 81 | 1040.6 |
| 20260905024438 | 63 | 225 | 13.9 | 13.9 | 0.00 | 0.06 | 0.00 | 81 | 1021.7 |
| 20260905024237 | 63 | 157 | 7.0 | 14.8 | 0.00 | 0.06 | 0.00 | 80 | 1040.6 |
| 20260905023938 | 63 | 270 | 7.0 | 14.8 | 0.00 | 0.06 | 0.00 | 80 | 1043.8 |
| 20260905023438 | 64 | 225 | 8.7 | 20.0 | 0.00 | 0.06 | 0.00 | 81 | 1024.8 |
| 20260905022938 | 64 | 247 | 7.0 | 17.4 | 0.00 | 0.06 | 0.00 | 81 | 1018.5 |
| 20260905022438 | 64 | 225 | 7.8 | 15.6 | 0.00 | 0.06 | 0.00 | 81 | 1012.2 |
| 20260905021938 | 64 | 202 | 5.2 | 20.9 | 0.00 | 0.06 | 0.00 | 81 | 1031.2 |
| 20260905021438 | 64 | 270 | 10.4 | 13.0 | 0.00 | 0.06 | 0.00 | 81 | 1031.2 |
| 20260905020937 | 64 | 202 | 11.3 | 18.2 | 0.00 | 0.06 | 0.00 | 81 | 1028.0 |
| 20260905020438 | 64 | 225 | 1.7 | 12.2 | 0.00 | 0.06 | 0.00 | 81 | 1037.5 |
| 20260905015938 | 64 | 225 | 9.6 | 12.2 | 0.00 | 0.06 | 0.00 | 81 | 1043.8 |
| 20260905015438 | 64 | 202 | 5.2 | 13.0 | 0.00 | 0.06 | 0.00 | 81 | 1015.4 |
| 20260905014938 | 64 | 225 | 11.3 | 14.8 | 0.00 | 0.06 | 0.00 | 81 | 1028.0 |
| 20260905014438 | 64 | 270 | 5.2 | 18.2 | 0.00 | 0.06 | 0.00 | 81 | 1015.4 |
| 20260905013938 | 65 | 225 | 13.0 | 18.2 | 0.00 | 0.06 | 0.00 | 81 | 1034.3 |
| 20260905013637 | 65 | 270 | 10.4 | 17.4 | 0.00 | 0.06 | 0.00 | 81 | 1034.3 |
| 20260905013438 | 65 | 225 | 8.7 | 16.5 | 0.00 | 0.06 | 0.00 | 81 | 1024.9 |
| 20260905012938 | 65 | 225 | 8.7 | 19.1 | 0.00 | 0.06 | 0.00 | 81 | 1009.0 |
| 20260905012438 | 65 | 292 | 7.8 | 17.4 | 0.00 | 0.06 | 0.00 | 82 | 1040.6 |
| 20260905011938 | 65 | 247 | 8.7 | 20.9 | 0.00 | 0.06 | 0.00 | 82 | 1012.2 |
| 20260905011438 | 65 | 225 | 3.5 | 16.5 | 0.00 | 0.06 | 0.00 | 82 | 1031.1 |
| 20260905010938 | 65 | 292 | 6.1 | 18.2 | 0.00 | 0.06 | 0.00 | 83 | 1021.7 |
| 20260905010438 | 65 | 270 | 13.9 | 16.5 | 0.00 | 0.06 | 0.00 | 84 | 1053.2 |
| 20260905010337 | 65 | 292 | 8.7 | 16.5 | 0.00 | 0.06 | 0.00 | 84 | 1040.7 |
| 20260905005938 | 65 | 225 | 14.8 | 16.5 | 0.00 | 0.06 | 0.00 | 84 | 1031.2 |
| 20260905005438 | 65 | 202 | 13.0 | 18.2 | 0.00 | 0.06 | 0.00 | 84 | 1050.1 |
| 20260905004938 | 65 | 247 | 13.0 | 15.6 | 0.00 | 0.06 | 0.00 | 84 | 1040.6 |
| 20260905004438 | 65 | 225 | 10.4 | 13.9 | 0.00 | 0.06 | 0.00 | 85 | 1043.8 |
| 20260905003938 | 65 | 270 | 7.0 | 15.6 | 0.00 | 0.06 | 0.00 | 85 | 1058.6 |
| 20260905003438 | 65 | 225 | 7.0 | 14.8 | 0.00 | 0.06 | 0.00 | 85 | 1040.6 |
| 20260905003037 | 65 | 247 | 9.6 | 16.5 | 0.00 | 0.06 | 0.00 | 86 | 1003.1 |
| 20260905002938 | 65 | 225 | 16.5 | 16.5 | 0.00 | 0.06 | 0.00 | 86 | 1034.3 |
| 20260905002438 | 65 | 225 | 5.2 | 18.2 | 0.00 | 0.06 | 0.00 | 86 | 1024.4 |
| 20260905001938 | 65 | 202 | 8.7 | 13.0 | 0.00 | 0.06 | 0.00 | 86 | 1059.4 |
| 20260905001438 | 65 | 202 | 5.2 | 17.4 | 0.00 | 0.06 | 0.00 | 86 | 1062.6 |
| 20260905000938 | 65 | 247 | 10.4 | 14.8 | 0.00 | 0.06 | 0.00 | 87 | 1069.7 |
| 20260905000439 | 65 | 180 | 7.8 | 16.5 | 0.00 | 0.06 | 0.00 | 87 | 1002.7 |
| 20260904235938 | 65 | 225 | 9.6 | 14.8 | 0.00 | 0.06 | 0.00 | 87 | 1053.1 |
| 20260904235737 | 65 | 270 | 7.8 | 16.5 | 0.00 | 0.06 | 0.00 | 87 | 1040.7 |
| 20260904235438 | 65 | 225 | 14.8 | 16.5 | 0.00 | 0.06 | 0.00 | 87 | 1048.7 |
| 20260904234938 | 65 | 247 | 7.0 | 13.0 | 0.00 | 0.06 | 0.00 | 87 | 1067.4 |
| 20260904234438 | 65 | 270 | 6.1 | 13.9 | 0.00 | 0.06 | 0.00 | 87 | 997.3 |
| 20260904233939 | 65 | 225 | 10.4 | 14.8 | 0.00 | 0.06 | 0.00 | 87 | 1038.1 |
| 20260904233438 | 65 | 270 | 9.6 | 13.0 | 0.00 | 0.06 | 0.00 | 87 | 1045.6 |
| 20260904232938 | 65 | 292 | 7.0 | 10.4 | 0.00 | 0.06 | 0.00 | 87 | 1050.2 |
| 20260904232437 | 64 | 247 | 5.2 | 13.0 | 0.00 | 0.06 | 0.00 | 87 | 1056.3 |
| 20260904231938 | 64 | 225 | 5.2 | 11.3 | 0.00 | 0.06 | 0.00 | 87 | 1013.5 |
| 20260904231438 | 64 | 247 | 7.8 | 12.2 | 0.00 | 0.06 | 0.00 | 87 | 1053.6 |
| 20260904230938 | 64 | 270 | 7.8 | 11.3 | 0.00 | 0.06 | 0.00 | 87 | 1040.7 |
| 20260904230438 | 64 | 247 | 3.5 | 9.6 | 0.00 | 0.06 | 0.00 | 87 | 1064.3 |
| 20260904225939 | 64 | 225 | 7.0 | 13.9 | 0.00 | 0.06 | 0.00 | 87 | 1070.5 |
| 20260904225438 | 64 | 225 | 7.0 | 14.8 | 0.00 | 0.06 | 0.00 | 86 | 1024.5 |
| 20260904225137 | 64 | 202 | 7.8 | 15.6 | 0.00 | 0.06 | 0.00 | 86 | 1043.5 |
| 20260904224938 | 64 | 247 | 7.8 | 15.6 | 0.00 | 0.06 | 0.00 | 86 | 1078.5 |
| 20260904224438 | 64 | 247 | 12.2 | 14.8 | 0.00 | 0.06 | 0.00 | 86 | 1076.1 |
| 20260904223938 | 64 | 247 | 3.5 | 12.2 | 0.00 | 0.06 | 0.00 | 86 | 1083.1 |
| 20260904223438 | 64 | 202 | 8.7 | 12.2 | 0.00 | 0.06 | 0.00 | 86 | 1053.2 |
| 20260904222938 | 64 | 202 | 7.8 | 13.9 | 0.00 | 0.06 | 0.00 | 85 | 1041.4 |
| 20260904222438 | 64 | 225 | 2.6 | 10.4 | 0.00 | 0.06 | 0.00 | 85 | 1079.8 |
| 20260904221938 | 64 | 202 | 4.3 | 10.4 | 0.00 | 0.06 | 0.00 | 85 | 1013.0 |
| 20260904221837 | 64 | 202 | 7.8 | 10.4 | 0.00 | 0.06 | 0.00 | 85 | 1059.3 |
| 20260904221438 | 64 | 270 | 7.0 | 13.9 | 0.00 | 0.06 | 0.00 | 85 | 1024.0 |
| 20260904220938 | 64 | 270 | 6.1 | 13.0 | 0.00 | 0.06 | 0.00 | 85 | 1060.8 |
| 20260904220438 | 64 | 225 | 7.0 | 8.7 | 0.00 | 0.06 | 0.00 | 85 | 1045.3 |
| 20260904215938 | 64 | 270 | 4.3 | 13.9 | 0.00 | 0.08 | 0.00 | 85 | 1070.9 |
| 20260904215438 | 64 | 225 | 5.2 | 10.4 | 0.00 | 0.08 | 0.00 | 85 | 1070.8 |
| 20260904214938 | 64 | 225 | 10.4 | 12.2 | 0.00 | 0.08 | 0.00 | 84 | 1066.1 |
| 20260904214537 | 64 | 202 | 9.6 | 9.6 | 0.00 | 0.08 | 0.00 | 84 | 1051.7 |
| 20260904214438 | 64 | 270 | 5.2 | 8.7 | 0.00 | 0.08 | 0.00 | 84 | 1050.2 |
| 20260904213938 | 64 | 270 | 3.5 | 12.2 | 0.00 | 0.08 | 0.00 | 85 | 1041.0 |
| 20260904213438 | 64 | 180 | 5.2 | 12.2 | 0.00 | 0.08 | 0.00 | 85 | 1051.4 |
| 20260904212938 | 64 | 247 | 8.7 | 14.8 | 0.00 | 0.08 | 0.00 | 85 | 1061.0 |
| 20260904212438 | 64 | 270 | 7.0 | 14.8 | 0.00 | 0.08 | 0.00 | 85 | 1085.9 |
| 20260904211938 | 65 | 270 | 7.8 | 16.5 | 0.00 | 0.08 | 0.00 | 85 | 1064.5 |
| 20260904211438 | 65 | 225 | 7.0 | 17.4 | 0.00 | 0.08 | 0.00 | 84 | 1057.9 |
| 20260904211237 | 65 | 247 | 5.2 | 17.4 | 0.00 | 0.08 | 0.00 | 84 | 1057.6 |
| 20260904210938 | 65 | 247 | 7.0 | 14.8 | 0.02 | 0.08 | 0.00 | 84 | 1055.4 |
| 20260904210438 | 65 | 270 | 10.4 | 13.9 | 0.02 | 0.08 | 0.00 | 84 | 1062.7 |
| 20260904205938 | 65 | 270 | 11.3 | 14.8 | 0.02 | 0.08 | 0.00 | 84 | 1075.3 |
| 20260904205438 | 65 | 270 | 12.2 | 13.0 | 0.02 | 0.08 | 0.00 | 84 | 1080.0 |
| 20260904204938 | 65 | 225 | 10.4 | 13.9 | 0.02 | 0.08 | 0.00 | 84 | 1046.9 |
| 20260904204438 | 65 | 202 | 5.2 | 16.5 | 0.02 | 0.08 | 0.00 | 84 | 1036.6 |
| 20260904203937 | 66 | 292 | 13.0 | 14.8 | 0.04 | 0.08 | 0.00 | 84 | 1060.6 |
| 20260904203438 | 66 | 225 | 7.0 | 15.6 | 0.04 | 0.08 | 0.00 | 84 | 1030.3 |
| 20260904202938 | 66 | 247 | 14.8 | 14.8 | 0.04 | 0.08 | 0.00 | 84 | 1057.9 |
| 20260904202438 | 66 | 247 | 8.7 | 16.5 | 0.06 | 0.08 | 0.00 | 84 | 1052.5 |
| 20260904201938 | 66 | 270 | 7.8 | 20.0 | 0.06 | 0.08 | 0.00 | 84 | 1075.7 |
| 20260904201439 | 66 | 247 | 9.6 | 14.8 | 0.06 | 0.08 | 0.00 | 84 | 1067.4 |
| 20260904200938 | 66 | 270 | 15.6 | 15.6 | 0.04 | 0.06 | 0.00 | 84 | 1072.1 |
| 20260904200637 | 66 | 247 | 12.2 | 18.2 | 0.04 | 0.06 | 0.00 | 84 | 1022.1 |
| 20260904200438 | 66 | 225 | 11.3 | 18.2 | 0.04 | 0.06 | 0.00 | 84 | 1098.4 |
| 20260904195938 | 67 | 225 | 12.2 | 15.6 | 0.04 | 0.06 | 0.00 | 82 | 1053.2 |
| 20260904195438 | 67 | 247 | 13.0 | 13.0 | 0.04 | 0.06 | 0.00 | 81 | 1072.2 |
| 20260904194938 | 68 | 247 | 7.0 | 12.2 | 0.04 | 0.06 | 0.00 | 79 | 1058.3 |
| 20260904194438 | 69 | 270 | 6.1 | 13.9 | 0.04 | 0.06 | 0.00 | 77 | 1064.2 |
| 20260904193938 | 70 | 270 | 5.2 | 13.9 | 0.02 | 0.04 | 0.00 | 74 | 1055.9 |
| 20260904193438 | 70 | 202 | 4.3 | 12.2 | 0.02 | 0.04 | 0.00 | 72 | 1066.8 |
| 20260904193337 | 71 | 180 | 7.0 | 12.2 | 0.02 | 0.04 | 0.00 | 72 | 1060.7 |
| 20260904192938 | 71 | 202 | 7.0 | 14.8 | 0.00 | 0.02 | 0.00 | 71 | 1054.8 |
| 20260904192438 | 72 | 202 | 9.6 | 17.4 | 0.00 | 0.02 | 0.00 | 69 | 1056.0 |
| 20260904191938 | 73 | 247 | 15.6 | 15.6 | 0.00 | 0.02 | 0.00 | 68 | 1061.1 |
| 20260904191438 | 73 | 225 | 13.0 | 17.4 | 0.00 | 0.02 | 0.00 | 67 | 1099.9 |
| 20260904190938 | 73 | 202 | 14.8 | 22.6 | 0.00 | 0.02 | 0.00 | 67 | 1080.0 |
| 20260904190438 | 72 | 225 | 9.6 | 22.6 | 0.00 | 0.02 | 0.00 | 67 | 1073.7 |
| 20260904190038 | 72 | 225 | 11.3 | 22.6 | 0.00 | 0.02 | 0.00 | 67 | 1051.6 |
| 20260904185938 | 72 | 247 | 22.6 | 22.6 | 0.00 | 0.02 | 0.00 | 67 | 1071.0 |
| 20260904185438 | 72 | 180 | 4.3 | 16.5 | 0.00 | 0.02 | 0.00 | 67 | 1070.5 |
| 20260904184939 | 72 | 225 | 12.2 | 14.8 | 0.00 | 0.02 | 0.00 | 67 | 1062.7 |
| 20260904184438 | 72 | 202 | 10.4 | 15.6 | 0.00 | 0.02 | 0.00 | 68 | 1061.6 |
| 20260904183939 | 72 | 225 | 16.5 | 16.5 | 0.00 | 0.02 | 0.00 | 68 | 1061.0 |
| 20260904183438 | 71 | 202 | 13.0 | 16.5 | 0.00 | 0.02 | 0.00 | 68 | 1049.9 |
| 20260904182939 | 71 | 202 | 7.0 | 12.2 | 0.00 | 0.02 | 0.00 | 68 | 1018.3 |
| 20260904182738 | 71 | 225 | 7.8 | 12.2 | 0.00 | 0.02 | 0.00 | 68 | 1024.5 |
| 20260904182439 | 71 | 180 | 4.3 | 13.0 | 0.00 | 0.02 | 0.00 | 68 | 1040.6 |
| 20260904181939 | 71 | 225 | 5.2 | 10.4 | 0.00 | 0.02 | 0.00 | 68 | 1022.7 |
| 20260904181439 | 71 | 180 | 10.4 | 11.3 | 0.00 | 0.02 | 0.00 | 68 | 1053.2 |
| 20260904180939 | 71 | 202 | 7.0 | 11.3 | 0.00 | 0.02 | 0.00 | 68 | 1056.5 |
| 20260904180439 | 71 | 180 | 5.2 | 11.3 | 0.00 | 0.02 | 0.00 | 68 | 1053.1 |
| 20260904175939 | 71 | 180 | 4.3 | 15.6 | 0.00 | 0.02 | 0.00 | 68 | 1059.5 |
| 20260904175438 | 71 | 202 | 9.6 | 11.3 | 0.00 | 0.02 | 0.00 | 68 | 1053.6 |
| 20260904174939 | 71 | 202 | 1.7 | 13.0 | 0.00 | 0.02 | 0.00 | 68 | 1042.5 |
| 20260904174439 | 71 | 202 | 7.8 | 13.9 | 0.00 | 0.02 | 0.00 | 68 | 1055.7 |
| 20260904173939 | 71 | 157 | 8.7 | 12.2 | 0.00 | 0.02 | 0.00 | 67 | 1046.9 |